Tracking 19489 objects as of 23-Jan-2019
HD Live streaming from Space Station
objects crossing your sky now

FENGYUN 1C DEB

Track FENGYUN 1C DEB now!
10-day predictions


NORAD ID: 31627
Int'l Code: 1999-025CAH
Perigee: 779.4 km
Apogee: 866.0 km
Inclination: 98.8 °
Period: 101.2 minutes
Semi major axis: 7193 km
RCS: 0.013 m2 (small)
Launch date: May 10, 1999
Source: People's Republic of China (PRC)
Launch site: Taiyaun Space Center, China (TSC)

Note: This is SATELLITE DEBRIS
aabbcc
Your satellite tracking list
Your tracking list is empty




NASA's NSSDC Master Catalog

Two Line Element Set (TLE):
1 31627U 99025CAH 19019.32519080 +.00000397 +00000-0 +19307-3 0  9994
2 31627 098.7610 066.7020 0060212 302.0503 057.4835 14.22906568288493
Source of the keplerian elements: AFSPC